Flag for South Africa Weather past 2 weeks in Rustenburg, South Africa

Now
59 °F

Scattered clouds.


Feels Like: 57 °F
Forecast: 54 / 81 °F
Wind: 9 mph from Northeast

Location: Lanseria Civ / Mil

Current Time: Apr 22, 2015 at 6:39:44 AM

Latest Report: Apr 22, 2015 at 6:00 AM


Visibility: N/A

Pressure: 30.39 "Hg

Humidity: 88%

Dew point: 55 °F

Location of RustenburgLocation

Historic Weather in Rustenburg — Graph

°F

Rustenburg temperature yesterday

Maximum temperature yesterday: 77 °F (at 1:00 PM)
Minimum temperature yesterday: 50 °F (at 3:00 AM)
Average temperature yesterday: 64 °F

Past Weeks' High & Low Weather Summary

 TemperatureHumidityPressure
High79 °F (Apr 14, 1:00 PM)100% (Apr 7, 6:00 AM)30.39 "Hg (Apr 7, 6:00 AM)
Low46 °F (Apr 16, 5:00 AM)16% (Apr 16, 3:00 PM)30.01 "Hg (Apr 15, 2:00 PM)
Average62 °F67%30.25 "Hg
* Reported Apr 7 4:00 AM — Apr 22 4:00 AM, Rustenburg, Weather by CustomWeather, © 2015

Note: Actual official high and low records may vary slightly from our data, if they occured in-between our weather recording intervals... More about our weather records

Advertising

Rustenburg weather history for previous 24 hours

 ConditionsComfort  
Time TempWeatherWind HumidityBarometerVisibility
4:00 AM
Wed, Apr 22
59 °FCool.10 mph88%30.36 "HgN/A
3:00 AM61 °FCool.8 mph83%30.36 "HgN/A
2:00 AM61 °FCool.10 mph83%30.36 "HgN/A
1:00 AM61 °FCool.5 mph68%30.36 "HgN/A
12:00 AM59 °FCool.7 mph68%30.33 "HgN/A
11:00 PM
Tue, Apr 21
57 °FCool.9 mph67%30.33 "HgN/A
10:00 PM64 °FClear.6 mph49%30.33 "Hg10 mi
9:00 PM66 °FClear.2 mph43%30.33 "Hg10 mi
8:00 PM68 °FClear.2 mph40%30.30 "Hg10 mi
7:00 PM68 °FClear.No wind38%30.30 "Hg10 mi
6:00 PM72 °FClear.8 mph33%30.27 "Hg10 mi
5:00 PM77 °FPassing clouds.6 mph28%30.27 "HgN/A
4:00 PM77 °FPassing clouds.9 mph28%30.27 "HgN/A
3:00 PM77 °FPassing clouds.6 mph30%30.27 "HgN/A
2:00 PM77 °FPassing clouds.7 mph32%30.27 "HgN/A
1:00 PM77 °FPassing clouds.12 mph36%30.30 "HgN/A
12:00 PM75 °FPassing clouds.12 mph36%30.30 "HgN/A
11:00 AM73 °FPassing clouds.12 mph38%30.33 "HgN/A
10:00 AM70 °FPassing clouds.6 mph50%30.33 "HgN/A
9:00 AM63 °FSunny.2 mph64%30.33 "Hg10 mi
8:00 AM55 °FPassing clouds.5 mph82%30.33 "HgN/A
7:00 AM52 °FSunny.7 mph94%30.30 "Hg10 mi
6:00 AM52 °FSunny.No wind88%30.27 "Hg10 mi
Weather by CustomWeather, © 2015

See weather overviewHow to use our weather pages